ASIASAT 7

Last updated on Sun Nov 16 2025 00:03:41 GMT+0000 (Coordinated Universal Time)

1 37933U 11069A 25319.57086155 -.00000327 00000+0 00000+0 0 9990 2 37933 0.0147 260.5636 0001364 331.4600 133.9271 1.00272517 42713
UTC large
Height (km)
Speed (km/s)
/
Latitude / Longitude
Inclination (degrees)
Orbital Period (minutes)
Azimuth
Elevation
Range (km)
Doppler Factor

Next 0 passes for location: London (51.5072 / 0.1276)

Sorry there are no passes over London.